This is the latest recevied weather packets stored in our database for station/object KT5AL. If no packets are shown the sender has not sent any weather packets the latest 10 day(s).
| Time | Temp. | Humidity | Pressure | Rain* | Wind** | Luminosity | Snow |
|---|---|---|---|---|---|---|---|
| 1777922408 | 25.56° C | 58% | 1007 hPa | 0 mm | - | - | - |
| 1777922106 | 25.56° C | 56% | 1007 hPa | 0 mm | - | - | - |
| 1777921808 | 25.56° C | 58% | 1007 hPa | 0 mm | - | - | - |
| 1777921505 | 25.56° C | 56% | 1007.7 hPa | 0 mm | - | - | - |
| 1777921208 | 25° C | 60% | 1007.7 hPa | 0 mm | - | - | - |
| 1777920905 | 25° C | 58% | 1007.7 hPa | 0 mm | - | - | - |
| 1777920608 | 25° C | 59% | 1007.7 hPa | 0 mm | - | - | - |
| 1777920305 | 25° C | 60% | 1008.3 hPa | 0 mm | - | - | - |
| 1777920008 | 24.44° C | 60% | 1008.3 hPa | 0 mm | - | - | - |
| 1777919732 | 24.44° C | 60% | 1008.3 hPa | 0 mm | - | - | - |
| 1777919408 | 24.44° C | 60% | 1008.3 hPa | 0 mm | - | - | - |
| 1777919105 | 24.44° C | 60% | 1008.3 hPa | 0 mm | - | - | - |
| 1777918808 | 24.44° C | 59% | 1008.3 hPa | 0 mm | - | - | - |
| 1777918505 | 24.44° C | 60% | 1008.7 hPa | 0 mm | - | - | - |
| 1777918208 | 24.44° C | 60% | 1008.7 hPa | 0 mm | - | - | - |
| 1777917905 | 24.44° C | 59% | 1009 hPa | 0 mm | - | - | - |
| 1777917608 | 23.89° C | 60% | 1009 hPa | 0 mm | - | - | - |
| 1777917305 | 23.89° C | 61% | 1009 hPa | 0 mm | - | - | - |
| 1777917008 | 23.89° C | 60% | 1009 hPa | 0 mm | - | - | - |
| 1777916706 | 23.89° C | 60% | 1009.4 hPa | 0 mm | - | - | - |
| 1777916407 | 23.33° C | 63% | 1009.4 hPa | 0 mm | - | - | - |
| 1777916105 | 23.89° C | 60% | 1009.4 hPa | 0 mm | - | - | - |
| 1777915808 | 23.33° C | 60% | 1009.4 hPa | 0 mm | - | - | - |
| 1777915506 | 23.33° C | 61% | 1009.7 hPa | 0 mm | - | - | - |
| 1777915208 | 23.33° C | 61% | 1009.7 hPa | 0 mm | - | - | - |
* Rain latest hour (hover to see other rain measurements)
** Current wind speed in m/s (hover to see current wind gust speed)